Location: Bismarck
(46.7731°N, 100.8200°W)
Time: 20:20:12
(UTC-06:00)

ISS - Pass Details

Date: 01 December 2017
Orbit: 402 x 407 km, 51.6° (Epoch: 10 December)

Event Time Altitude Azimuth Distance (km) Brightness Sun altitude
Rises 17:56:22 0° 230° (SW) 2,320 1.6 -9.9°
Reaches altitude 10° 17:58:28 10° 225° (SW) 1,463 0.2 -10.3°
Maximum altitude 18:01:41 53° 148° (SSE) 507 -3.4 -10.8°
Enters shadow 18:03:54 18° 75° (ENE) 1,083 -2.3 -11.1°
